Location: Martin
(32.0982°N, 93.2193°W)
Time: 04:28:32
(UTC+00:00)

BlueWalker 3 - Visible Passes

Search period start: 18 September 2024 00:00
Search period end: 28 September 2024 00:00
Orbit: 475 x 487 km, 53.2° (Epoch: 17 September)

Date Brightness Start Highest point End Pass type
(mag) Time Alt. Az. Time Alt. Az. Time Alt. Az.
18 Sep 1.9 00:36:38 10° NW 00:40:21 65° NE 00:44:04 10° SE visible
19 Sep 4.8 01:49:12 10° WSW 01:50:17 11° WSW 01:51:21 10° SW visible
20 Sep 4.8 01:20:55 10° W 01:22:38 13° WSW 01:24:21 10° SSW visible
21 Sep 4.7 00:52:48 10° W 00:54:57 15° WSW 00:57:07 10° SSW visible
